ロニオス彗星

P/1999 RO28 ( LONEOS ) 2019

English version
Home page
Updated on June 12, 2026

---------------------------------------------------------------------

・ プロフィール

・ 軌道要素

                    Epoch = 2019 July 16.0 TT
     T = 2019 June 30.89134 TT        Peri. = 232.07727
     e = 0.6722083                    Node  = 137.06780 2000.0
     q = 1.1233585 AU                 Incl. =   7.52265
       a =  3.4270502 AU   n = 0.15535434   P =   6.34 years

・ 光度変化

        m1 = 20.5 + 5 logΔ + 10.0 log r

---------------------------------------------------------------------

軌道要素は、CBET 5702に掲載されたものです。
光度グラフはComet for Windowsで作成したものです。

---------------------------------------------------------------------

Copyright(C) Seiichi Yoshida (comet@aerith.net). All rights reserved.